• MPC Preparation (Info)

  • MPEC 2016-O06 : 2014 QV441

    The following Minor Planet Electronic Circular may be linked-to from your own Web pages, but must not otherwise be redistributed electronically.

    A form allowing access to any MPEC is at the bottom of this page.


    Read MPEC 2016-O05 Read MPEC 2016-O07


    M.P.E.C. 2016-O06                                Issued 2016 July 16, 00:13 UT
    
         The Minor Planet Electronic Circulars contain information on unusual
             minor planets and routine data on comets.  They are published
        on behalf of Division F of the International Astronomical Union by the
              Minor Planet Center, Smithsonian Astrophysical Observatory,
                              Cambridge, MA 02138, U.S.A.
    
                 Prepared using the Tamkin Foundation Computer Network
    
                                  MPC@CFA.HARVARD.EDU
                URL https://www.minorplanetcenter.net/    ISSN 1523-6714
    
                                      2014 QV441
    
    Observations:
         K14Qi1V  C2013 11 23.22978 00 13 35.022-10 29 40.20         21.5 rLEO006F51
         K14Qi1V  C2013 11 23.23038 00 13 35.019-10 29 39.75         21.4 rLEO006F51
         K14Qi1V  C2013 11 23.24116 00 13 34.995-10 29 39.94         21.6 rLEO006F51
         K14Qi1V  C2013 11 23.24175 00 13 35.001-10 29 40.02         21.6 rLEO006F51
         K14Qi1V  C2013 11 23.25418 00 13 34.947-10 29 40.05         21.3 iLEO006F51
         K14Qi1V  C2013 11 23.25484 00 13 34.940-10 29 40.08         21.3 iLEO006F51
         K14Qi1V  C2013 11 23.26692 00 13 34.911-10 29 40.32         21.6 iLEO006F51
         K14Qi1V  C2013 11 23.26758 00 13 34.883-10 29 40.41         21.6 iLEO006F51
         K14Qi1V* C2014 08 22.52399 00 45 02.012-08 59 28.08         21.6 wLEO006F51
         K14Qi1V  C2014 08 22.53516 00 45 01.946-08 59 29.13         21.4 wLEO006F51
         K14Qi1V  C2014 08 22.54633 00 45 01.885-08 59 30.00         21.6 wLEO006F51
         K14Qi1V  C2014 08 22.55755 00 45 01.828-08 59 30.87         21.7 wLEO006F51
         K14Qi1V  C2014 09 02.44914 00 43 56.815-09 14 50.74         21.5 wLEO006F51
         K14Qi1V  C2014 09 02.45975 00 43 56.737-09 14 51.74         21.6 wLEO006F51
         K14Qi1V  C2014 09 02.47034 00 43 56.666-09 14 52.47         21.5 wLEO006F51
         K14Qi1V  C2014 09 02.48093 00 43 56.596-09 14 53.46         21.5 wLEO006F51
         K14Qi1V  C2014 09 14.44685 00 42 29.809-09 31 49.72         21.1 iLEO006F51
         K14Qi1V  C2014 09 14.45851 00 42 29.736-09 31 50.94         21.4 iLEO006F51
         K14Qi1V  C2014 09 14.47014 00 42 29.613-09 31 51.93         21.3 iLEO006F51
         K14Qi1V  C2014 09 14.48178 00 42 29.528-09 31 52.94         20.9 iLEO006F51
         K14Qi1V  C2014 09 24.45089 00 41 08.767-09 45 30.36         21.4 wLEO006F51
         K14Qi1V  C2014 09 24.46373 00 41 08.665-09 45 31.69         21.3 wLEO006F51
         K14Qi1V  C2014 09 24.47659 00 41 08.548-09 45 32.05         21.5 wLEO006F51
         K14Qi1V  C2014 12 07.20986 00 33 19.681-10 33 27.00         21.2 iLEO006F51
         K14Qi1V  C2014 12 07.22502 00 33 19.662-10 33 26.83         21.3 iLEO006F51
         K14Qi1V  C2014 12 07.23806 00 33 19.620-10 33 26.78         20.9 iLEO006F51
    
    Observer details:
    F51 Pan-STARRS 1, Haleakala.  Observers B. Gibson, T. Goggia, N. Primak,
        A. Schultz, M. Willman.  Measurers K. Chambers, S. Chastel, Y.-T. Chen,
        L. Denneau, H. Flewelling, M. Holman, M. Huber, R. Jedicke, M. Lackner,
        E. Lilly, H.-W. Lin, E. Magnier, M. Micheli, M. Payne, P. Veres,
        R. Wainscoat, C. Waters, R. Weryk.  1.8-m Ritchey-Chretien + CCD.
    
    Orbital elements:
    2014 QV441
    Epoch 2016 July 31.0 TT = JDT 2457600.5                 MPC
    M 353.50806              (2000.0)            P               Q
    n   0.00557929     Peri.  234.51399     +0.80109105     -0.57724216
    a  31.4835218      Node   159.23789     +0.58087157     +0.81354545
    e   0.4031188      Incl.   26.51496     -0.14436534     +0.07025155
    P 176.65           H    8.5           G   0.15           U   4
    Residuals in seconds of arc
    131123 F51  0.0   0.2-    140822 F51  0.1-  0.1-    140914 F51  0.3-  0.1-
    131123 F51  0.0   0.2+    140822 F51  0.1-  0.0     140914 F51  0.2-  0.2-
    131123 F51  0.1+  0.1+    140822 F51  0.0   0.1+    140924 F51  0.4+  0.1-
    131123 F51  0.2+  0.0     140902 F51  0.0   0.0     140924 F51  0.5+  0.5-
    131123 F51  0.0   0.1+    140902 F51  0.1-  0.0     140924 F51  0.4+  0.2+
    131123 F51  0.1-  0.1+    140902 F51  0.1-  0.1+    141207 F51  0.1-  0.2+
    131123 F51  0.1+  0.1-    140902 F51  0.1-  0.0     141207 F51  0.0   0.2+
    131123 F51  0.3-  0.2-    140914 F51  0.2-  0.1+    141207 F51  0.3-  0.1+
    140822 F51  0.0   0.1+    140914 F51  0.1+  0.1-
    
    Ephemeris:
    2014 QV441               a,e,i = 31.48, 0.40, 27                 q = 18.792
    Date    TT    R. A. (2000) Decl.     Delta      r     Elong.  Phase     V
    2016 06 16    01 24 32.5 -07 46 02  19.3702 19.0358    69.4     2.9    21.6
    ...
    2016 07 01    01 26 23.7 -07 52 03  19.1316 19.0298    82.7     3.0    21.6
    ...
    2016 07 09    01 27 07.1 -07 57 18  19.0004 19.0267    89.9     3.1    21.6
    ...
    2016 07 15    01 27 31.9 -08 02 09  18.9020 19.0243    95.4     3.0    21.6
    2016 07 16    01 27 35.4 -08 03 01  18.8857 19.0239    96.3     3.0    21.6
    2016 07 17    01 27 38.7 -08 03 55  18.8694 19.0236    97.2     3.0    21.6
    ...
    2016 07 23    01 27 54.4 -08 09 42  18.7726 19.0212   102.7     3.0    21.6
    ...
    2016 07 31    01 28 04.6 -08 18 26  18.6473 19.0181   110.0     2.9    21.5
    ...
    2016 08 15    01 27 50.9 -08 37 26  18.4311 19.0124   123.7     2.5    21.5
    
    A. U. Tomatic                (C) Copyright 2016 MPC           M.P.E.C. 2016-O06
    

    Read MPEC 2016-O05 Read MPEC 2016-O07


    MPEC number:

    Enter an MPEC number in one of the following forms:

    • 1997-B01 (the full form)
    • J97B01 (the packed version of the full form)
    • B01 (the abbreviated form)